Hourly Weather Roundup
Issued by NWS Central Illinois

Home | Current Version | Previous Version | Text Only | Print | Product List | Glossary On
Versions: 1 2 3 4 5 6 7 8 9 10 11 12 13 14 15 16 17 18 19 20 21 22 23 24 25 26 27 28 29 30 31 32 33 34 35 36 37 38 39 40 41 42 43 44 45 46 47 48 49 50
000
NZUS43 KILX 091810
HWRILX

AREA WEATHER ROUNDUP
NATIONAL WEATHER SERVICE, LINCOLN IL
1200 PM CST TUE FEB 09 2016


CITY           SKY/WX    TMP DP  RH WIND       PRES   REMARKS
BLOOMINGTON    LGT SNOW  17  11  77 NW18      29.90S WCI   1
6HR MIN TEMP:  15; 6HR MAX TEMP:  18; 6HR PCP: TRACE;

CHAMPAIGN      LGT SNOW  19  12  74 NW18      29.88S WCI   4
6HR MIN TEMP:  17; 6HR MAX TEMP:  19; 6HR PCP: TRACE;

DANVILLE       LGT SNOW  19  14  79 NW16      29.82S WCI   5
6HR MIN TEMP:  18; 6HR MAX TEMP:  20;

DECATUR        LGT SNOW  19  11  70 NW17G28   29.92S WCI   4
6HR MIN TEMP:  17; 6HR MAX TEMP:  19; 6HR PCP: TRACE;

EFFINGHAM      LGT SNOW  19  14  80 W16G24    29.95S WCI   5
FLORA          CLOUDY    23  13  66 NW18G24   29.96R WCI   8
6HR MIN TEMP:  21; 6HR MAX TEMP:  23;

GALESBURG      CLOUDY    17   9  70 NW17G26   29.97S WCI   1
JACKSONVILLE   CLOUDY    20  11  67 NW15      29.99S WCI   6
6HR MIN TEMP:  17; 6HR MAX TEMP:  20;

LACON          CLOUDY    17   8  67 NW14G21   29.93S WCI   3
6HR MIN TEMP:  14; 6HR MAX TEMP:  17;

LAWRENCEVILLE  LGT SNOW  21  15  78 W15       29.92S WCI   8
6HR MIN TEMP:  19; 6HR MAX TEMP:  21; 6HR PCP: TRACE;

LITCHFIELD     LGT SNOW  18  11  73 NW16      29.97F WCI   3
$$


CITY           SKY/WX    TMP DP  RH WIND       PRES   REMARKS
LINCOLN        PTSUNNY   20  10  66 NW10G20   29.94S WCI   9
6HR MIN TEMP:  17; 6HR MAX TEMP:  20;

MACOMB         MOSUNNY   18   9  69 NW24G30   30.02S WCI   0
MATTOON        LGT SNOW  19  11  70 NW22      29.89S WCI   2
6HR MIN TEMP:  17; 6HR MAX TEMP:  19; 6HR PCP: TRACE;

MT CARMEL AP   CLOUDY    23  14  68 NW16      29.93S WCI  10
OLNEY-NOBLE AP CLOUDY    23  14  68 W17       29.94S WCI   9
PARIS          LGT SNOW  20  15  79 NW16G22   29.88S WCI   6
6HR MIN TEMP:  19; 6HR MAX TEMP:  21;

PEORIA         CLOUDY    18   7  62 NW10G20   29.95F WCI   6
6HR MIN TEMP:  14; 6HR MAX TEMP:  18; 6HR PCP:  0.01;

PONTIAC        LGT SNOW  18  13  79 NW18      29.89F WCI   3
RANTOUL        LGT SNOW  20  14  77 NW21      29.87S WCI   4
6HR MIN TEMP:  19; 6HR MAX TEMP:  20;

ROBINSON       FLURRIES  20  13  74 NW13G23   29.93S WCI   8
6HR MIN TEMP:  18; 6HR MAX TEMP:  21;

SPRINGFIELD    LGT SNOW  19  11  70 NW17G25   29.96F WCI   4
6HR MIN TEMP:  17; 6HR MAX TEMP:  19; 6HR PCP: TRACE;

TAYLORVILLE    CLOUDY    19  10  68 NW18G25   29.95F WCI   4
$$

...REGIONAL REPORTS...


CITY           SKY/WX    TMP DP  RH WIND       PRES   REMARKS
CHICAGO O`HARE PTSUNNY   18   8  65 NW13      29.83S WCI   5
KANKAKEE       CLOUDY    19  10  67 W13G22    29.85S WCI   6
MOLINE         CLOUDY    18   6  59 NW17      29.98S WCI   3
MOUNT STERLING CLOUDY    17   9  71 NW20G25   30.01S WCI   0
MOUNT VERNON   CLOUDY    19   9  63 NW8G18    29.98S WCI   9
PITTSFIELD     CLOUDY    19   9  66 NW16      30.03S WCI   4
QUINCY         LGT SNOW  17  10  74 NW22G30   30.03S WCI   0
ROCKFORD       CLOUDY    16   6  65 NW16      29.90F WCI   1
$$


CITY           SKY/WX    TMP DP  RH WIND       PRES   REMARKS
BURLINGTON     CLOUDY    16   7  67 NW17G29   30.02R WCI   0
CEDAR RAPIDS   CLOUDY    13   6  74 NW23      30.03R WCI  -6
DES MOINES     MOSUNNY   14   4  64 N17       30.15S WCI  -3
KIRKSVILLE     FLURRIES  22   6  50 NW16G29   30.09R WCI   8
OTTUMWA        PTSUNNY   15   6  67 NW25      30.09S WCI  -4
ST LOUIS       FLURRIES  21  10  63 NW17G24   30.02F WCI   7
$$


CITY           SKY/WX    TMP DP  RH WIND       PRES   REMARKS
TERRE HAUTE    FLURRIES  21  12  68 NW12      29.87S WCI   9
EVANSVILLE     CLOUDY    24  13  62 W14G21    29.94S WCI  12
INDIANAPOLIS   LGT SNOW  23  16  74 W16       29.79F WCI  10
LAFAYETTE      LGT SNOW  21  15  78 NW12G20   29.82S WCI   9
MADISON        FLURRIES  13   3  64 NW16G23   29.88S WCI  -3
MILWAUKEE      PTSUNNY   18   6  59 NW15G21   29.82S WCI   4
$$





USA.gov is the U.S. government's official web portal to all federal, state and local government web resources and services.